[Iaude] MPEC L102: 2022 LQ3 [a=1.21,e=0.15,i=14.8,H=24.0]

mpec at marsden.cfa.harvard.edu mpec at marsden.cfa.harvard.edu
Tue Jun 14 07:03:31 EDT 2022


M.P.E.C. 2022-L102                                Issued 2022 June 14, 11:02 UT

     The Minor Planet Electronic Circulars contain information on unusual
         minor planets and routine data on comets.  They are published
    on behalf of Division F of the International Astronomical Union by the
          Minor Planet Center, Smithsonian Astrophysical Observatory,
                          Cambridge, MA 02138, U.S.A.

             Prepared using the Tamkin Foundation Computer Network

                              MPC at CFA.HARVARD.EDU
            URL https://www.minorplanetcenter.net/    ISSN 1523-6714

                                    2022 LQ3                                    


Observations:
     K22L03Q* C2022 06 04.35535815 54 36.602-28 01 36.36         22.13wUEL102F52
     K22L03Q  C2022 06 04.36552515 54 35.692-28 00 58.49         21.53wUEL102F52
     K22L03Q  C2022 06 04.37573015 54 34.772-28 00 20.80         22.09wUEL102F52
     K22L03Q  C2022 06 04.48018715 54 25.546-27 53 50.60         22.41GVEL102F52
     K22L03Q  C2022 06 04.48081615 54 25.507-27 53 48.67         22.28GVEL102F52
     K22L03Q ^C2022 06 05.43311015 53 18.754-26 55 27.39         21.62GVEL102568
     K22L03Q ^C2022 06 05.44264015 53 17.949-26 54 52.18         22.11GVEL102568
     K22L03Q KC2022 06 06.22155015 52 27.590-26 08 03.50               VEL102V06
     K22L03Q KC2022 06 06.22617315 52 27.190-26 07 47.60         22.00GVEL102V06
     K22L03Q DC2022 06 07.22459 15 51 25.10 -25 08 50.6          22.1 GVEL102695
     K22L03Q DC2022 06 07.23267 15 51 24.50 -25 08 22.6                VEL102695
     K22L03Q DC2022 06 07.24076 15 51 23.94 -25 07 54.4                VEL102695

Observer details:
568 Mauna Kea.  Observer Y. Ramanjooloo.  Measurers R. Weryk, Y. Ramanjooloo,
    R. Wainscoat.  2.24-m University of Hawaii reflector + CCD.
695 Kitt Peak.  Observer R. A. Mastaler.  2.3-m f/9 reflector + CCD.
F52 Pan-STARRS 2, Haleakala.  Observers J. Bulger, T. Lowe, A. Schultz, I.
    Smith, K. Chambers, T. Dukes.  Measurers K. Chambers, S. Chastel, T. de
    Boer, J. Fairlamb, H. Gao, M. Huber, C.-C. Lin, E. Magnier, Y.
    Ramanjooloo, R. Wainscoat, R. Weryk.  1.8-m Ritchey-Chretien + CCD.
V06 Catalina Sky Survey-Kuiper.  Observer G. J. Leonard.  Measurers E. J.
    Christensen, D. Fay, J. B. Fazekas, D. C. Fuls, A. R. Gibbs, A. D. Grauer,
    H. Groeller, J. K. Hogan, R. A. Kowalski, S. M. Larson, G. J. Leonard, D.
    Rankin, R. L. Seaman, A. Serrano, F. C. Shelly, K. W. Wierzchos.  1.55-m
    reflector + 1K CCD.

Orbital elements:
2022 LQ3                                                 Earth MOID = 0.1088 AU
Epoch 2022 Aug. 9.0 TT = JDT 2459800.5                  Bell                    
M 143.65530              (2000.0)            P               Q                  
n   0.73882216     Peri.  242.09362     -0.72609440     -0.64121951             
a   1.2118330      Node   256.88997     +0.68564421     -0.64802478             
e   0.1533958      Incl.   14.76683     +0.05175837     -0.41097619             
P   1.33           H   24.04          G   0.15           U   9                  
Residuals in seconds of arc
220604 F52  0.0   0.1-    220604 F52  0.4+  0.4-    220606 V06  0.2-  0.4-
220604 F52  0.1-  0.1+    220605 568  0.1+  0.1-    220607 695  0.9-  0.8+
220604 F52  0.2-  0.0     220605 568  0.1-  0.1+    220607 695  1.0-  0.7+
220604 F52  0.1+  0.0     220606 V06  0.4+  0.2+    220607 695  0.6-  0.6+

Ephemeris:
2022 LQ3                 a,e,i = 1.21, 0.15, 15                  q = 1.0259
Date    TT    R. A. (2000) Decl.     Delta      r    Elong.  Phase     V
2022 05 15    16 35 26.6 -49 49 21   0.2301  1.2082   145.9    27.9    22.5
...
2022 05 30    16 02 21.9 -33 46 44   0.2350  1.2436   166.8    10.7    22.0
...
2022 06 07    15 51 38.3 -25 21 34   0.2544  1.2617   164.4    12.5    22.3
...
2022 06 13    15 46 56.2 -19 56 31   0.2763  1.2748   157.3    17.9    22.7
2022 06 14    15 46 24.5 -19 07 51   0.2805  1.2770   156.0    18.9    22.8
2022 06 15    15 45 56.9 -18 20 49   0.2848  1.2791   154.7    19.8    22.8
...
2022 06 21    15 44 30.8 -14 12 17   0.3137  1.2915   147.4    25.1    23.2
...
2022 06 29    15 45 44.7 -10 04 41   0.3585  1.3073   138.6    30.9    23.7
...
2022 07 14    15 55 44.7 -05 39 59   0.4566  1.3340   125.4    38.4    24.5

M. P. C. Staff               (C) Copyright 2022 MPC           M.P.E.C. 2022-L102




More information about the Iaude mailing list